STARLINK-2731 (48651 NORAD) Tracking and Keplerian Element Data

This shows tracking and keplerian element data for the satellite.

Feedback or suggestion? Click here.




ElementValue
Catalog48651
NameSTARLINK-2731
Epoch Orbit1079
Epoch Day211.13420895
Epoch Year2021
RAAN119.3857
Inclination53.0522
Eccentricity0.0002073
Argument of Perigee87.3657
Mean Anonmoly272.7569
Mean Motion15.06399056
Decay Rate1.458E-05
L11 48651U 21044P 21211.13420895 .00001458 00000-0 11675-3 0 9995
L22 48651 53.0522 119.3857 0002073 87.3657 272.7569 15.06399056 10794

Live tracking and technical data element details for STARLINK-2731 (NORAD 48651). STARLINK-2731 can be tracked NOW for your location showing map with azimuth and elevation plus other details from your city location.

Track the satellite on the map from your city or location and see movement details for azimuth, elevation, latitude, longitude, range, height, and movement on the map or in text.







IsCatalogInMostPopularTable: catalog: 48651, numindb: 13
Update: records affected: 1



GetName: 48651 STARLINK-2731

Hit Count: updated at: Sat, 31 Jul 2021 15:19:16 GMT